Flag for Canada Weather past 2 weeks in Edmundston, New Brunswick, Canada

Now
37 °F

Chilly.


Feels Like: 31 °F
Forecast: 30 / 40 °F
Wind: 8 mph from South

Location: St Leonard


UV Index: 3 (Moderate)

Visibility: N/A


Pressure: 30.14 "Hg

Humidity: 63%

Dew point: 26 °F

Location of EdmundstonLocation

Historic Weather in Edmundston

°F

Edmundston temperature yesterday

Maximum temperature yesterday: 44 °F (at 4:00 PM)
Minimum temperature yesterday: 26 °F (at 5:00 AM)
Average temperature yesterday: 35 °F

Past Weeks' High & Low Weather Summary

 TemperatureHumidityPressure
High55 °F (Apr 14, 5:00 PM)100% (Apr 5, 5:00 AM)30.84 "Hg (Apr 5, 5:00 AM)
Low8 °F (Apr 17, 7:00 AM)32% (Apr 10, 4:00 PM)29.18 "Hg (Apr 9, 1:00 AM)
Average35 °F71%29.98 "Hg
* Reported Apr 4 2:00 AM — Apr 19 2:00 AM, Edmundston, Weather by CustomWeather, © 2014

Note: Actual official high and low records may vary slightly from our data, if they occured in-between our weather recording intervals... More about our weather records

Advertising

Historic Weather Conditions — Data for Previous 24 hours

 ConditionsComfort  
Time TempWeatherWind HumidityBarometerVisibility
2:00 AM
Apr 19
37 °FChilly.8 mph63%30.14 "HgN/A
1:00 AM36 °FChilly.6 mph57%30.16 "HgN/A
12:00 AM39 °FChilly.6 mph51%30.18 "HgN/A
11:00 PM
Apr 18
39 °FChilly.5 mph52%30.20 "HgN/A
10:00 PM40 °FChilly.5 mph50%30.22 "HgN/A
9:00 PM41 °FQuite cool.5 mph49%30.23 "HgN/A
8:00 PM40 °FQuite cool.6 mph49%30.27 "HgN/A
7:00 PM43 °FQuite cool.7 mph45%30.30 "HgN/A
6:00 PM44 °FQuite cool.9 mph44%30.32 "HgN/A
5:00 PM44 °FQuite cool.12 mph42%30.34 "HgN/A
4:00 PM44 °FQuite cool.10 mph44%30.38 "HgN/A
3:00 PM43 °FQuite cool.12 mph47%30.43 "HgN/A
2:00 PM42 °FQuite cool.14 mph48%30.47 "HgN/A
1:00 PM40 °FQuite cool.14 mph54%30.50 "HgN/A
12:00 PM38 °FChilly.10 mph58%30.52 "HgN/A
11:00 AM35 °FChilly.10 mph60%30.55 "HgN/A
10:00 AM33 °FChilly.9 mph64%30.59 "HgN/A
9:00 AM31 °FChilly.8 mph61%30.61 "HgN/A
8:00 AM29 °FChilly.6 mph65%30.63 "HgN/A
7:00 AM26 °FChilly.6 mph72%30.64 "HgN/A
6:00 AM26 °FChilly.7 mph71%30.65 "HgN/A
5:00 AM26 °FChilly.6 mph72%30.65 "HgN/A
4:00 AM28 °FChilly.7 mph68%30.64 "HgN/A
3:00 AM27 °FChilly.3 mph71%30.66 "HgN/A
Weather by CustomWeather, © 2014

See weather overview